Observer details:
104 San Marcello Pistoiese.  Observers L. Tesi, G. Fagioli, M. Mazzucato,
    E. Tognelli.  Measurer L. Tesi.  0.60-m f/4 reflector + CCD.
114 Engelhardt Observatory, Zelenchukskaya Station.  Observers =. Kryachko,
    B. Satovski.  Measurer T. Kryachko.  0.3-m f/7.7 reflector + CCD.
204 Schiaparelli Observatory.  Observer L. Buzzi.  0.60-m f/4.64 reflector
    + CCD.
291 LPL/Spacewatch II.  Observer T. H. Bressi.  1.8-m f/2.7 reflector + CCD.
493 Calar Alto.  Observer F. Hormuth.  1.23-m reflector + CCD.
510 Siegen.  Observer H. Bill.  0.30-m f/5 reflector + CCD.
611 Starkenburg.  Observer M. Busch.  0.45-m f/4.4 reflector + CCD.
673 Table Mountain Observatory, Wrightwood.  Observer J. Young.  0.61-m f/16
    Cassegrain + CCD.
703 Catalina Sky Survey.  Observer E. Beshore.  Measurers E. C. Beshore,
    A. Boattini, G. J. Garradd, A. R. Gibbs, A. D. Grauer, R. E. Hill,
    R. A. Kowalski, S. M. Larson, R. H. McNaught.  0.68-m Schmidt + CCD.
704 Lincoln Laboratory ETS, New Mexico.  Observers M. Bezpalko, D. Torres,
    R. Kracke, G. Spitz, J. Kistler.  Measurers J. Stuart, S. Scruggs.  1.0-m
    f/2.15 reflector + CCD.
850 Cordell-Lorenz Observatory, Sewanee.  Observers D. T. Durig, D. S. Hardage.
    0.30-m f/2.5 Schmidt-Cassegrain + 765x510 CCD.
854 Sabino Canyon Observatory, Tucson.  Observer J. E. McGaha.  0.36-m f/10.0
    Schmidt-Cassegrain + CCD.
A17 Guidestar Observatory, Weinheim.  Observers M. Emmerich, S. Melchert.
    0.36-m f/6 Schmidt-Cassegrain + CCD.
A24 New Millennium Observatory, Mozzate.  Observer E. Cozzi.  0.36-m f/7.6
    Schmidt-Cassegrain + CCD.
A99 Osservatorio del Monte Baldo.  Observer C. Flavio.  0.4-m reflector + CCD.
B04 OAVdA, Saint-Barthelemy.  Observer A. Carbognani.  0.81-m f/7.9 reflector
    + CCD.
B09 Capannoli.  Observer P. Bacci.  0.25-m f/10 Schmidt-Cassegrain + CCD
    + f/6.3 focal reducer.
G58 Chabot Space and Science Center, Oakland.  Observers G. McKeegan, C. Jung.
    0.9-m f/8 Cassegrain + CCD + f/6.3 focal reducer.
G96 Mt. Lemmon Survey.  Observer A. D. Grauer.  Measurers E. C. Beshore,
    A. Boattini, G. J. Garradd, A. R. Gibbs, A. D. Grauer, R. E. Hill,
    R. A. Kowalski, S. M. Larson, R. H. McNaught.  1.5-m reflector + CCD.
H01 Magdalena Ridge Observatory, Socorro.  Observer W. H. Ryan.  2.4-m f/8.9
    reflector + CCD.
H36 Sandlot Observatory, Scranton.  Observer G. Hug.  0.56-m reflector + CCD.
H55 Astronomical Research Observatory, Charleston.  Observer R. Holmes.
    Measurer H. Devore.  0.61-m f/4.0 astrograph + CCD.

Orbital elements:
2009 BD58                                                Earth MOID = 0.0652 AU
Epoch 2008 Nov. 30.0 TT = JDT 2454800.5                 MPC
M 309.94071              (2000.0)            P               Q
n   0.44316283     Peri.   64.87388     -0.94668671     +0.24363620
a   1.7038335      Node   128.50310     -0.29015338     -0.92911825
e   0.4774668      Incl.   15.62464     +0.13998315     -0.27817382
P   2.22           H   22.1           G   0.15           U   7
Residuals in seconds of arc
090118 703  0.1-  0.9+    090128 114 (0.1-  2.6+)   090129 A17  0.2+  1.0-
090118 703  0.0   0.4-    090128 114  0.2-  1.2+    090129 611  0.1+  0.1+
090118 703  0.8-  0.4-    090128 114  0.4+  0.4+    090129 611  0.7+  0.5-
090127 704  0.5+  0.3-    090128 114  0.9+  1.9+    090129 611  0.2+  0.1+
090127 704  0.3-  0.4-    090128 B09  0.0   0.3-    090129 104  0.2-  0.1-
090127 704  0.3-  0.8-    090128 B09  0.1+  0.6-    090129 104  0.4-  0.0
090127 704  0.6+  0.6-    090128 B09  0.1+  0.0     090129 104  0.7-  0.3-
090127 704  1.2+  0.7+    090128 A99  0.1+  0.1-    090129 493  0.2+  0.3-
090127 B04  0.1-  0.2-    090128 A99  0.1-  0.4+    090129 493  0.2+  0.4-
090127 B04  0.1+  0.2-    090128 A99  0.5-  1.2+    090129 493  0.1+  0.4-
090127 B04  0.3-  0.3-    090129 H55  0.2-  0.1-    090129 A24  0.1+  0.0
090127 B04  0.1-  0.4-    090129 H55  0.1-  0.1-    090129 A24  0.0   0.2+
090128 291  0.1-  0.1-    090129 H55  0.1+  0.1-    090129 A24  0.0   0.1-
090128 291  0.4+  0.2-    090129 H01  0.1-  0.0     090129 A24  0.1+  0.1-
090128 291  0.2-  0.4+    090129 H01  0.1-  0.1-    090129 510  0.2+  0.2+
090128 854  0.5-  0.1+    090129 H01  0.0   0.0     090129 510  0.4-  0.3-
090128 854  0.2-  0.3-    090129 H01  0.0   0.1-    090129 204  0.1-  0.4+
090128 854  0.2+  0.5-    090129 H01  0.2-  0.1-    090129 204  0.2-  0.4+
090128 704  0.4+  0.1+    090129 G58  0.4+  0.0     090130 204  0.2-  0.4+
090128 704  0.0   0.4+    090129 G58  0.1+  0.1+    090130 204  0.2-  0.4+
090128 704  0.2+  0.3+    090129 G58  0.2+  0.2-    090130 850  0.7+  0.1+
090128 704  0.3+  0.4+    090129 704  1.4+  0.9+    090130 850  0.6+  0.6+
090128 704  0.0   0.2+    090129 704  0.0   0.3+    090130 850  0.1+  0.0
090128 704  0.3-  0.2+    090129 704  0.6+  0.6+    090130 850 (0.4-  2.2-)
090128 704  0.1+  0.3-    090129 704  0.5+  0.3+    090130 850  1.0-  1.2-
090128 704  0.4-  0.3-    090129 H36  0.5-  0.5-    090130 850  1.6-  0.1-
090128 704  0.1+  0.1-    090129 H36  0.3-  0.0     090130 850  1.5-  1.2+
090128 673  0.0   0.0     090129 H36  0.7-  0.2-    090130 G96  0.1-  0.1+
090128 704  0.0   0.1-    090129 H36  0.0   0.2-    090130 G96  0.0   0.1-
090128 673  0.1+  0.0     090129 H36  0.0   0.2+    090130 G96  0.2-  0.1-
090128 673  0.0   0.2-    090129 A17  0.6+  0.7-    090130 G96  0.0   0.2-
090128 673  0.1+  0.2-    090129 A17  0.3+  0.8-

Ephemeris:
2009 BD58                a,e,i = 1.70, 0.48, 16                  q = 0.8903
Date    TT    R. A. (2000) Decl.     Delta      r     Elong.  Phase     V
2009 01 29    08 08.91   +19 15.3    0.112    1.096   171.1     8.0    18.1
2009 01 30    08 08.99   +21 53.3    0.106    1.089   169.5     9.5    18.0
2009 01 31    08 09.12   +24 50.0    0.100    1.083   167.1    11.7    18.0
2009 02 01    08 09.31   +28 07.9    0.0946   1.077   164.3    14.4    18.0
2009 02 02    08 09.59   +31 48.9    0.0894   1.070   160.8    17.6    17.9
2009 02 03    08 09.98   +35 54.9    0.0847   1.064   156.9    21.3    17.9
2009 02 04    08 10.53   +40 27.1    0.0806   1.058   152.6    25.4    17.9
2009 02 05    08 11.29   +45 25.8    0.0770   1.052   147.7    30.1    17.9
2009 02 06    08 12.37   +50 49.7    0.0741   1.046   142.4    35.1    18.0
2009 02 07    08 13.92   +56 35.5    0.0719   1.040   136.8    40.5    18.1
2009 02 08    08 16.25   +62 37.8    0.0704   1.034   130.8    46.2    18.2
2009 02 09    08 20.02   +68 49.2    0.0698   1.028   124.8    52.0    18.3
2009 02 10    08 26.88   +75 00.8    0.0700   1.022   118.7    57.9    18.5
2009 02 11    08 42.71   +81 03.1    0.0710   1.017   112.8    63.5    18.6
2009 02 12    09 51.52   +86 39.5    0.0728   1.011   107.1    69.0    18.9
2009 02 13    17 59.92   +87 03.9    0.0753   1.005   101.8    74.0    19.1
2009 02 14    19 19.11   +82 14.6    0.0784   1.000    96.9    78.6    19.3
2009 02 15    19 36.09   +77 38.0    0.0820   0.995    92.5    82.8    19.6
2009 02 16    19 43.38   +73 25.0    0.0862   0.989    88.5    86.5    19.8
2009 02 17    19 47.43   +69 35.8    0.0907   0.984    84.9    89.8    20.0
2009 02 18    19 50.02   +66 08.8    0.0956   0.979    81.8    92.7    20.2

Timothy B. Spahr             (C) Copyright 2009 MPC           M.P.E.C. 2009-B75

Read MPEC 2009-B74 Read MPEC 2009-B76


MPEC number:

Enter an MPEC number in one of the following forms:

  • 1997-B01 (the full form)
  • J97B01 (the packed version of the full form)
  • B01 (the abbreviated form)

